Location: Clanezzo
(45.7500°N, 9.6000°E)
Time: 10:27:14
(UTC+00:00)

SPROUT - Pass Details

Date: 10 July 2022
Orbit: 588 x 598 km, 97.9° (Epoch: 14 August)

Event Time Altitude Azimuth Distance (km) Brightness Sun altitude
Exits shadow 22:40:37 - 89° (E) 1,991 ? -21.3°
Reaches altitude 10° 22:40:59 10° 85° (E) 1,922 ? -21.3°
Maximum altitude 22:42:45 13° 60° (ENE) 1,763 ? -21.4°
Drops below altitude 10° 22:44:31 10° 34° (NE) 1,930 ? -21.4°
Sets 22:47:50 0° 6° (N) 2,840 ? -21.5°
